When you browse on this site, cookies collect data to enhance your experience and personalize the content and advertising you see.
Visit our Privacy Policy to learn more. By continuing to use the site, you agree to this use of cookies and data.
EN

Hourly Weather Goias

Today, 25 September, Friday

Time Temperature Precipitation Wind Pressure Humidity
00:00 +27°C° 0 mm 1 mps 709 mmHg 55%
01:00 +26°C° 0 mm 1 mps 709 mmHg 57%
02:00 +26°C° 0 mm 1 mps 708 mmHg 59%
03:00 +25°C° 0 mm 1 mps 708 mmHg 62%
04:00 +25°C° 0 mm 1 mps 708 mmHg 63%
05:00 +25°C° 0 mm 1 mps 709 mmHg 65%
06:00 +24°C° 0 mm 1 mps 709 mmHg 67%
07:00 +27°C° 0 mm 2 mps 709 mmHg 59%
08:00 +29°C° 0 mm 4 mps 710 mmHg 51%
09:00 +32°C° 0 mm 5 mps 711 mmHg 43%
10:00 +34°C° 0 mm 4 mps 710 mmHg 38%
11:00 +35°C° 0 mm 4 mps 710 mmHg 33%
12:00 +37°C° 0 mm 3 mps 710 mmHg 28%
13:00 +37°C° 0 mm 3 mps 709 mmHg 26%
14:00 +37°C° 0 mm 2 mps 709 mmHg 24%
15:00 +38°C° 0 mm 2 mps 708 mmHg 22%
16:00 +36°C° 0 mm 2 mps 708 mmHg 24%
17:00 +34°C° 0 mm 1 mps 707 mmHg 27%
18:00 +33°C° 0 mm 1 mps 707 mmHg 29%
19:00 +32°C° 0 mm 1 mps 707 mmHg 31%
20:00 +30°C° 0 mm 1 mps 708 mmHg 32%
21:00 +29°C° 0 mm 1 mps 708 mmHg 34%
22:00 +29°C° 0 mm 1 mps 708 mmHg 35%
23:00 +29°C° 0 mm 1 mps 708 mmHg 36%

Tomorrow, 26 September, Saturday

Time Temperature Precipitation Wind Pressure Humidity
00:00 +28°C° 0 mm 1 mps 708 mmHg 36%
01:00 +28°C° 0 mm 1 mps 708 mmHg 39%
02:00 +27°C° 0 mm 1 mps 707 mmHg 41%
03:00 +26°C° 0 mm 1 mps 707 mmHg 43%
04:00 +26°C° 0 mm 1 mps 707 mmHg 44%
05:00 +25°C° 0 mm 1 mps 707 mmHg 44%
06:00 +25°C° 0 mm 1 mps 708 mmHg 44%
07:00 +27°C° 0 mm 2 mps 708 mmHg 38%
08:00 +30°C° 0 mm 3 mps 709 mmHg 33%
09:00 +33°C° 0 mm 4 mps 710 mmHg 27%
10:00 +35°C° 0 mm 4 mps 710 mmHg 24%
11:00 +36°C° 0 mm 4 mps 709 mmHg 22%
12:00 +38°C° 0 mm 3 mps 709 mmHg 20%
13:00 +38°C° 0 mm 3 mps 708 mmHg 18%
14:00 +38°C° 0 mm 3 mps 707 mmHg 17%
15:00 +39°C° 0 mm 3 mps 706 mmHg 16%
16:00 +37°C° 0 mm 2 mps 706 mmHg 17%
17:00 +36°C° 0 mm 2 mps 706 mmHg 19%
18:00 +34°C° 0 mm 2 mps 705 mmHg 21%
19:00 +32°C° 0 mm 1 mps 706 mmHg 23%
20:00 +31°C° 0 mm 1 mps 706 mmHg 24%
21:00 +29°C° 0 mm 1 mps 706 mmHg 26%
22:00 +29°C° 0 mm 1 mps 706 mmHg 27%
23:00 +28°C° 0 mm 1 mps 706 mmHg 29%

Day after tomorrow, 27 September, Sunday

Time Temperature Precipitation Wind Pressure Humidity
00:00 +27°C° 0 mm 1 mps 706 mmHg 31%
01:00 +26°C° 0 mm 1 mps 706 mmHg 32%
02:00 +26°C° 0 mm 1 mps 706 mmHg 34%
03:00 +25°C° 0 mm 1 mps 705 mmHg 36%
04:00 +25°C° 0 mm 1 mps 705 mmHg 37%
05:00 +22°C° 0 mm 0 mps 706 mmHg 39%
06:00 +22°C° 0 mm 0 mps 706 mmHg 40%
07:00 +27°C° 0 mm 1 mps 707 mmHg 34%
08:00 +30°C° 0 mm 2 mps 708 mmHg 28%
09:00 +34°C° 0 mm 4 mps 709 mmHg 22%
10:00 +36°C° 0 mm 3 mps 708 mmHg 20%
11:00 +37°C° 0 mm 3 mps 708 mmHg 18%
12:00 +39°C° 0 mm 3 mps 708 mmHg 16%
13:00 +39°C° 0 mm 3 mps 707 mmHg 15%
14:00 +40°C° 0 mm 3 mps 706 mmHg 14%
15:00 +40°C° 0 mm 2 mps 706 mmHg 13%
16:00 +38°C° 0 mm 2 mps 706 mmHg 14%
17:00 +37°C° 0 mm 2 mps 705 mmHg 16%
18:00 +34°C° 0 mm 1 mps 705 mmHg 18%
19:00 +33°C° 0 mm 1 mps 705 mmHg 19%
20:00 +31°C° 0 mm 1 mps 706 mmHg 21%
21:00 +28°C° 0 mm 0 mps 706 mmHg 22%
22:00 +29°C° 0 mm 1 mps 706 mmHg 24%
23:00 +28°C° 0 mm 1 mps 706 mmHg 25%

28 September, Monday

Time Temperature Precipitation Wind Pressure Humidity
00:00 +27°C° 0 mm 1 mps 706 mmHg 26%
01:00 +27°C° 0 mm 1 mps 706 mmHg 27%
02:00 +26°C° 0 mm 1 mps 705 mmHg 29%
03:00 +26°C° 0 mm 1 mps 705 mmHg 30%
04:00 +25°C° 0 mm 1 mps 705 mmHg 30%
05:00 +25°C° 0 mm 1 mps 705 mmHg 31%
06:00 +25°C° 0 mm 1 mps 706 mmHg 32%
07:00 +28°C° 0 mm 1 mps 707 mmHg 27%
08:00 +31°C° 0 mm 1 mps 707 mmHg 22%
09:00 +36°C° 0 mm 2 mps 708 mmHg 18%
10:00 +37°C° 0 mm 2 mps 708 mmHg 16%
11:00 +39°C° 0 mm 3 mps 708 mmHg 14%
12:00 +40°C° 0 mm 3 mps 708 mmHg 13%
13:00 +42°C° 0 mm 3 mps 707 mmHg 12%
14:00 +42°C° 0 mm 3 mps 706 mmHg 11%
15:00 +41°C° 0 mm 2 mps 705 mmHg 11%
16:00 +40°C° 0 mm 2 mps 705 mmHg 12%
17:00 +38°C° 0 mm 2 mps 705 mmHg 14%
18:00 +35°C° 0 mm 1 mps 705 mmHg 15%
19:00 +34°C° 0 mm 1 mps 705 mmHg 16%
20:00 +32°C° 0 mm 1 mps 705 mmHg 18%
21:00 +31°C° 0 mm 1 mps 705 mmHg 19%
22:00 +30°C° 0 mm 1 mps 705 mmHg 20%
23:00 +29°C° 0 mm 1 mps 705 mmHg 21%

29 September, Tuesday

Time Temperature Precipitation Wind Pressure Humidity
00:00 +29°C° 0 mm 1 mps 705 mmHg 22%
01:00 +28°C° 0 mm 1 mps 705 mmHg 23%
02:00 +27°C° 0 mm 1 mps 705 mmHg 25%
03:00 +27°C° 0 mm 1 mps 704 mmHg 26%
04:00 +26°C° 0 mm 1 mps 704 mmHg 27%
05:00 +25°C° 0 mm 1 mps 705 mmHg 28%
06:00 +25°C° 0 mm 1 mps 705 mmHg 29%
07:00 +28°C° 0 mm 2 mps 706 mmHg 25%
08:00 +33°C° 0 mm 3 mps 707 mmHg 20%
09:00 +37°C° 0 mm 5 mps 708 mmHg 16%
10:00 +39°C° 0 mm 5 mps 708 mmHg 14%
11:00 +41°C° 0 mm 5 mps 708 mmHg 13%
12:00 +43°C° 0 mm 5 mps 707 mmHg 11%
13:00 +43°C° 0 mm 4 mps 707 mmHg 10%
14:00 +44°C° 0 mm 4 mps 706 mmHg 10%
15:00 +44°C° 0 mm 3 mps 705 mmHg 9%
16:00 +42°C° 0 mm 3 mps 705 mmHg 11%
17:00 +39°C° 0 mm 3 mps 705 mmHg 12%
18:00 +38°C° 0 mm 3 mps 705 mmHg 13%
19:00 +36°C° 0 mm 3 mps 705 mmHg 15%
20:00 +34°C° 0 mm 2 mps 705 mmHg 17%
21:00 +32°C° 0 mm 2 mps 706 mmHg 19%
22:00 +31°C° 0 mm 2 mps 706 mmHg 20%
23:00 +30°C° 0 mm 2 mps 706 mmHg 21%

30 September, Wednesday

Time Temperature Precipitation Wind Pressure Humidity
00:00 +29°C° 0 mm 2 mps 706 mmHg 23%
01:00 +29°C° 0 mm 2 mps 706 mmHg 23%
02:00 +29°C° 0 mm 2 mps 705 mmHg 24%
03:00 +28°C° 0 mm 2 mps 705 mmHg 25%
04:00 +28°C° 0 mm 3 mps 706 mmHg 26%
05:00 +29°C° 0 mm 4 mps 706 mmHg 26%
06:00 +29°C° 0 mm 5 mps 706 mmHg 27%
07:00 +32°C° 0 mm 6 mps 707 mmHg 25%
08:00 +34°C° 0 mm 6 mps 708 mmHg 24%
09:00 +36°C° 0 mm 7 mps 709 mmHg 22%
10:00 +39°C° 0 mm 6 mps 709 mmHg 19%
11:00 +41°C° 0 mm 6 mps 708 mmHg 16%
12:00 +43°C° 0 mm 5 mps 708 mmHg 13%
13:00 +43°C° 0 mm 5 mps 707 mmHg 12%
14:00 +43°C° 0 mm 5 mps 707 mmHg 11%
15:00 +43°C° 0 mm 5 mps 706 mmHg 11%
16:00 +42°C° 0 mm 4 mps 705 mmHg 13%
17:00 +39°C° 0 mm 3 mps 705 mmHg 15%
18:00 +37°C° 0 mm 2 mps 705 mmHg 17%
19:00 +35°C° 0 mm 2 mps 705 mmHg 20%
20:00 +34°C° 0 mm 2 mps 706 mmHg 22%
21:00 +31°C° 0 mm 1 mps 706 mmHg 24%
22:00 +30°C° 0 mm 2 mps 706 mmHg 25%
23:00 +29°C° 0 mm 2 mps 706 mmHg 27%
Show more